Flag for Germany Weather past 2 weeks in Amberg, Bavaria, Germany

Now
59 °F

Mostly cloudy.


Feels Like: 58 °F
Forecast: 41 / 56 °F
Wind: 6 mph from North

Location: Hohenfels

Current Time: May 26, 2015 at 2:32:19 PM

Latest Report: May 26, 2015 at 1:58 PM


Visibility: N/A

Pressure: 30.02 "Hg

Humidity: 48%

Dew point: 39 °F

Location of AmbergLocation

Historic Weather in Amberg — Graph

°F

Amberg temperature yesterday

Maximum temperature yesterday: 66 °F (at 11:58 AM)
Minimum temperature yesterday: 50 °F (at 2:58 AM)
Average temperature yesterday: 56 °F

Past Weeks' High & Low Weather Summary

 TemperatureHumidityPressure
High79 °F (May 12, 2:58 PM)100% (May 20, 7:58 PM)30.35 "Hg (May 20, 7:58 PM)
Low36 °F (May 22, 4:58 AM)30% (May 14, 5:58 PM)29.72 "Hg (May 19, 2:58 AM)
Average56 °F70%30.05 "Hg
* Reported May 11 12:58 PM — May 26 12:58 PM, Amberg, Weather by CustomWeather, © 2015

Note: Actual official high and low records may vary slightly from our data, if they occured in-between our weather recording intervals... More about our weather records

Advertising

Amberg weather history for previous 24 hours

 ConditionsComfort  
Time TempWeatherWind HumidityBarometerVisibility
12:58 PM
Tue, May 26
57 °FOvercast.7 mph51%30.02 "HgN/A
11:58 AM57 °FPartly sunny.8 mph51%30.00 "HgN/A
10:58 AM55 °FPassing clouds.12 mph63%30.01 "HgN/A
9:58 AM52 °FPartly sunny.6 mph77%30.00 "HgN/A
8:58 AM50 °FBroken clouds.2 mph88%29.99 "HgN/A
7:58 AM48 °FLow clouds.6 mph100%29.97 "HgN/A
6:58 AM50 °FLow clouds.5 mph100%29.95 "HgN/A
5:58 AM50 °FLight rain. Fog.5 mph100%29.93 "HgN/A
5:03 AM52 °FLow clouds.5 mph100%29.91 "HgN/A
4:58 AM52 °FLight rain. Low clouds.5 mph100%29.90 "HgN/A
3:58 AM52 °FLight rain. Partly cloudy.2 mph94%29.90 "HgN/A
2:58 AM50 °FMostly cloudy.No wind100%29.91 "HgN/A
1:58 AM52 °FFog.No wind100%29.90 "Hg6 mi
12:58 AM54 °FMostly cloudy.3 mph94%29.89 "HgN/A
12:03 AM52 °FLight rain. Overcast.No wind100%29.92 "HgN/A
11:58 PM
Mon, May 25
52 °FOvercast.2 mph100%29.90 "HgN/A
10:58 PM52 °FOvercast.1 mph100%29.90 "HgN/A
9:58 PM52 °FMostly cloudy.3 mph100%29.91 "HgN/A
8:58 PM52 °FLight rain. Broken clouds.1 mph100%29.91 "HgN/A
7:58 PM54 °FScattered clouds.No wind88%29.91 "HgN/A
6:58 PM55 °FLight rain. Overcast.3 mph82%29.93 "HgN/A
5:58 PM57 °FBroken clouds.6 mph72%29.93 "HgN/A
4:59 PM63 °FLight rain. Broken clouds.3 mph68%29.89 "HgN/A
4:58 PM63 °FBroken clouds.3 mph68%29.88 "HgN/A
3:58 PM63 °FPartly sunny.2 mph73%29.89 "HgN/A
2:58 PM59 °FRain. Mostly cloudy.5 mph72%29.92 "Hg5 mi
Weather by CustomWeather, © 2015

See weather overviewHow to use our weather pages